Flag for Angola Weather past 2 weeks in Huambo, Angola

Now
73 °F

Mostly cloudy.


Feels Like: 75 °F
Forecast: 43 / 78 °F
Wind: 7 mph from West

Location: Luanda Airport

Current Time: Jun 30, 2015 at 1:55:19 PM

Latest Report: Jun 30, 2015 at 1:00 PM


Visibility: N/A

Pressure: 30.01 "Hg

Humidity: 74%

Dew point: 64 °F

Location of HuamboLocation

Historic Weather in Huambo — Graph

°F

Huambo temperature yesterday

Maximum temperature yesterday: 77 °F (at 11:00 AM)
Minimum temperature yesterday: 68 °F (at 12:00 AM)
Average temperature yesterday: 71 °F

Past Weeks' High & Low Weather Summary

 TemperatureHumidityPressure
High84 °F (Jun 24, 1:00 PM)94% (Jun 20, 12:00 AM)30.18 "Hg (Jun 20, 12:00 AM)
Low64 °F (Jun 28, 3:00 AM)48% (Jun 24, 1:00 PM)29.86 "Hg (Jun 17, 3:00 PM)
Average71 °F77%30.02 "Hg
* Reported Jun 15 12:00 Noon — Jun 30 12:00 Noon, Huambo, Weather by CustomWeather, © 2015

Note: Actual official high and low records may vary slightly from our data, if they occured in-between our weather recording intervals... More about our weather records

Advertising

Huambo weather history for previous 24 hours

 ConditionsComfort  
Time TempWeatherWind HumidityBarometerVisibility
12:00 PM
Tue, Jun 30
75 °FMore clouds than sun.5 mph69%30.04 "Hg5 mi
11:00 AM73 °FMore clouds than sun.6 mph74%30.04 "Hg5 mi
10:00 AM72 °FMore clouds than sun.6 mph78%30.07 "Hg4 mi
9:00 AM70 °FMostly cloudy.6 mph83%30.07 "Hg4 mi
8:00 AM70 °FMostly cloudy.2 mph83%30.04 "Hg4 mi
7:00 AM70 °FBroken clouds.2 mph83%30.01 "HgN/A
6:00 AM70 °FPassing clouds.3 mph83%30.01 "HgN/A
5:00 AM70 °FPassing clouds.3 mph83%30.01 "HgN/A
4:00 AM70 °FPassing clouds.3 mph83%30.01 "HgN/A
3:00 AM68 °FPassing clouds.7 mph88%30.01 "HgN/A
2:00 AM68 °FPassing clouds.7 mph88%30.01 "HgN/A
1:00 AM68 °FPassing clouds.7 mph88%30.01 "HgN/A
12:00 AM68 °FPassing clouds.7 mph88%30.04 "HgN/A
11:00 PM
Mon, Jun 29
68 °FClear.7 mph88%30.04 "Hg10 mi
10:00 PM68 °FPassing clouds.8 mph88%30.04 "HgN/A
9:00 PM68 °FPassing clouds.9 mph88%30.04 "HgN/A
8:00 PM68 °FClear.9 mph88%30.01 "Hg10 mi
6:00 PM72 °FPassing clouds.9 mph78%29.98 "HgN/A
5:00 PM72 °FPassing clouds.12 mph78%29.98 "HgN/A
4:00 PM73 °FPassing clouds.12 mph74%29.98 "HgN/A
3:00 PM75 °FPassing clouds.12 mph69%29.98 "HgN/A
2:00 PM73 °FPassing clouds.10 mph74%30.01 "HgN/A
1:00 PM73 °FBroken clouds.9 mph74%30.04 "HgN/A
Weather by CustomWeather, © 2015

See weather overviewHow to use our weather pages